Regional Weather Roundup
Issued by NWS Albany, NY

Home | Current Version | Previous Version | Text Only | Print | Product List | Glossary On
Versions: 1 2 3 4 5 6 7 8 9 10 11 12 13 14 15 16 17 18 19 20 21 22 23 24 25 26 27 28 29 30 31 32 33 34 35 36 37 38 39 40 41 42 43 44 45 46 47 48 49 50
000
ASUS41 KALY 280610
RWRALY

NEW YORK STATE HOURLY WEATHER ROUNDUP
NATIONAL WEATHER SERVICE ALBANY NY
200 AM EDT SUN MAY 28 2017

NOTE: "FAIR" INDICATES FEW OR NO CLOUDS BELOW 12,000 FEET WITH NO
SIGNIFICANT WEATHER AND/OR NO OBSTRUCTIONS TO VISIBILITY.

NYZ032-033-038>043-046>054-057>066-NYZ062>081-082-084-280700-
EAST


CITY           SKY/WX    TMP DP  RH WIND       PRES   REMARKS
ALBANY         CLOUDY    62  54  74 CALM      29.90R
GLENS FALLS    NOT AVBL
POUGHKEEPSIE   CLOUDY    61  57  87 CALM      29.89F
NEWBURGH       CLOUDY    63  59  88 VRB6      29.92S
MONTGOMERY     CLOUDY    60  58  92 CALM      29.90S
WHITE PLAINS   MOCLDY    58  55  90 SE3       29.91S
ISLIP          CLOUDY    59  56  89 S7        29.92S
NEW YORK CITY  MOCLDY    62  56  80 SE6       29.90S
CENTRAL PARK   CLOUDY    60  57  89 CALM      29.93S
$$

NYZ005>009-017-018-044>046-055-056-280700-
CENTRAL


CITY           SKY/WX    TMP DP  RH WIND       PRES   REMARKS
FULTON         CLEAR     49  47  93 CALM      29.89F FOG
SYRACUSE       PTCLDY    51  51 100 CALM      29.90F FOG
ROME           PTCLDY    55  54  96 CALM      29.92F
ELMIRA         CLOUDY    57  53  86 CALM      29.90F
BINGHAMTON     CLOUDY    56  54  93 S3        29.93S
MONTICELLO     CLOUDY    55  54  94 NW3       29.95S
$$

NYZ026>034-041>043-087-280700-
NORTH


CITY           SKY/WX    TMP DP  RH WIND       PRES   REMARKS
WATERTOWN      CLEAR     47  47 100 CALM      29.91S
FORT DRUM      NOT AVBL
OGDENSBURG     FAIR      54  51  92 S3        29.89S
MASSENA        CLEAR     54  51  90 SW8       29.89R
SARANAC LAKE   MOCLDY    38  38 100 CALM      29.92R FOG
PLATTSBURGH    CLEAR     48  47  96 CALM      29.87S FOG
$$

NYZ001>004-010>016-019>021-085-280700-
WEST


CITY           SKY/WX    TMP DP  RH WIND       PRES   REMARKS
NIAGARA FALLS  CLEAR     54  50  86 W5        29.89F FOG
BUFFALO        PTCLDY    54  51  90 S5        29.89F
DUNKIRK        CLEAR     51  49  92 CALM      29.90R
JAMESTOWN      CLEAR     54  46  76 E3        29.90R
WELLSVILLE     PTCLDY    53  51  93 E3        29.92F FOG
ROCHESTER      CLOUDY    53  52  96 CALM      29.90F
PENN YAN       FOG       52  49  89 CALM      29.90F VSB 1
$$

             KEY
       WCI = WIND CHILL INDEX
       VSB = VISIBILITY
       HX  = HEAT INDEX
$$



USA.gov is the U.S. government's official web portal to all federal, state and local government web resources and services.